Location: Buch
(49.7331°N, 12.1098°E)
Time: 15:59:46
(UTC+00:00)

Cosmos 2278 Rocket - Pass Details

Date: 12 May 2021
Orbit: 841 x 845 km, 71.0° (Epoch: 17 June)

Event Time Altitude Azimuth Distance (km) Brightness Sun altitude
Rises 20:03:06 0° 192° (SSW) 3,384 5.0 -10.6°
Reaches altitude 10° 20:05:34 10° 188° (S) 2,453 4.3 -10.9°
Maximum altitude 20:11:03 55° 112° (ESE) 1,005 2.3 -11.5°
Drops below altitude 10° 20:16:34 10° 36° (NE) 2,470 4.8 -12.1°
Sets 20:19:03 0° 32° (NNE) 3,409 5.6 -12.4°
